| time (UTC) | temp C | wind direction | speed KPH | gust KPH | rain 1hr cm | rain 24hr cm | rain mn cm | humidity % | barometer mb |
| 20260507043148 | 6 | 199 | 0.0 | 0.0 | 0.00 | 0.00 | 0.00 | 95 | 1018.5 |
| 20260507042644 | 6 | 199 | 0.0 | 0.0 | 0.00 | 0.00 | 0.00 | 95 | 1018.5 |
| 20260507042139 | 6 | 199 | 0.0 | 0.0 | 0.00 | 0.00 | 0.00 | 95 | 1018.5 |
| 20260507041637 | 6 | 199 | 0.0 | 0.0 | 0.00 | 0.00 | 0.00 | 95 | 1018.4 |
| 20260507041133 | 6 | 199 | 0.0 | 0.0 | 0.00 | 0.00 | 0.00 | 95 | 1018.4 |
| 20260507040630 | 6 | 199 | 0.0 | 0.0 | 0.00 | 0.00 | 0.00 | 94 | 1018.3 |
| 20260507040126 | 6 | 199 | 0.0 | 0.0 | 0.00 | 0.00 | 0.00 | 94 | 1018.5 |
| 20260507035622 | 6 | 199 | 0.0 | 0.0 | 0.00 | 0.00 | 0.00 | 94 | 1018.3 |
| 20260507035118 | 6 | 199 | 0.0 | 0.0 | 0.00 | 0.00 | 0.00 | 94 | 1018.1 |
| 20260507034615 | 6 | 199 | 0.0 | 0.0 | 0.00 | 0.00 | 0.00 | 93 | 1018.4 |
| 20260507034113 | 6 | 199 | 0.0 | 0.0 | 0.00 | 0.00 | 0.00 | 93 | 1018.3 |
| 20260507033611 | 6 | 199 | 0.0 | 0.0 | 0.00 | 0.00 | 0.00 | 93 | 1018.4 |
| 20260507033108 | 6 | 199 | 0.0 | 0.0 | 0.00 | 0.00 | 0.00 | 92 | 1018.1 |
| 20260507032605 | 6 | 199 | 0.0 | 0.0 | 0.00 | 0.00 | 0.00 | 92 | 1018.1 |
| 20260507032101 | 6 | 199 | 0.0 | 0.0 | 0.00 | 0.00 | 0.00 | 92 | 1018.0 |
| 20260507031558 | 6 | 199 | 0.0 | 0.0 | 0.00 | 0.00 | 0.00 | 92 | 1018.1 |
| 20260507031055 | 7 | 199 | 0.0 | 0.0 | 0.00 | 0.00 | 0.00 | 91 | 1018.0 |
| 20260507030551 | 6 | 199 | 0.0 | 0.0 | 0.00 | 0.00 | 0.00 | 91 | 1017.9 |
| 20260507030049 | 7 | 199 | 0.0 | 0.0 | 0.00 | 0.00 | 0.00 | 90 | 1017.9 |
| 20260507025546 | 7 | 199 | 0.0 | 0.0 | 0.00 | 0.00 | 0.00 | 90 | 1017.9 |
| 20260507025043 | 7 | 199 | 0.0 | 0.0 | 0.00 | 0.00 | 0.00 | 90 | 1017.9 |
| 20260507024541 | 7 | 199 | 0.0 | 0.0 | 0.00 | 0.00 | 0.00 | 89 | 1017.8 |
| 20260507024038 | 7 | 199 | 0.0 | 0.0 | 0.00 | 0.00 | 0.00 | 87 | 1017.9 |
| 20260507023533 | 7 | 199 | 0.0 | 0.0 | 0.00 | 0.00 | 0.00 | 87 | 1017.6 |
| 20260507023031 | 7 | 199 | 0.0 | 0.0 | 0.00 | 0.00 | 0.00 | 86 | 1017.7 |
| 20260507022528 | 8 | 199 | 0.0 | 0.0 | 0.00 | 0.00 | 0.00 | 86 | 1017.7 |
| 20260507022028 | 8 | 199 | 0.0 | 0.0 | 0.00 | 0.00 | 0.00 | 86 | 1017.6 |
| 20260507021525 | 8 | 199 | 0.0 | 0.0 | 0.00 | 0.00 | 0.00 | 85 | 1017.4 |
| 20260507021021 | 8 | 199 | 0.0 | 0.0 | 0.00 | 0.00 | 0.00 | 84 | 1017.6 |
| 20260507020519 | 8 | 199 | 0.0 | 0.0 | 0.00 | 0.00 | 0.00 | 84 | 1017.5 |
| 20260507020015 | 8 | 199 | 0.0 | 0.0 | 0.00 | 0.00 | 0.00 | 82 | 1017.4 |
| 20260507015514 | 8 | 199 | 0.0 | 0.0 | 0.00 | 0.00 | 0.00 | 81 | 1017.3 |
| 20260507015011 | 8 | 199 | 0.0 | 0.0 | 0.00 | 0.00 | 0.00 | 80 | 1017.2 |
| 20260507014507 | 9 | 160 | 0.0 | 1.6 | 0.00 | 0.00 | 0.00 | 79 | 1017.2 |
| 20260507014003 | 9 | 148 | 0.0 | 0.0 | 0.00 | 0.00 | 0.00 | 79 | 1017.2 |
| 20260507013500 | 10 | 308 | 0.0 | 1.6 | 0.00 | 0.00 | 0.00 | 78 | 1017.2 |
| 20260507012957 | 10 | 296 | 0.0 | 0.0 | 0.00 | 0.00 | 0.00 | 76 | 1017.3 |
| 20260507012454 | 10 | 296 | 0.0 | 0.0 | 0.00 | 0.00 | 0.00 | 76 | 1017.1 |
| 20260507011951 | 11 | 296 | 0.0 | 0.0 | 0.00 | 0.00 | 0.00 | 73 | 1017.1 |
| 20260507011448 | 11 | 296 | 0.0 | 0.0 | 0.00 | 0.00 | 0.00 | 71 | 1017.0 |
| 20260507010943 | 11 | 296 | 0.0 | 0.0 | 0.00 | 0.00 | 0.00 | 68 | 1016.9 |
| 20260507010438 | 11 | 297 | 0.0 | 0.0 | 0.00 | 0.00 | 0.00 | 65 | 1016.9 |
| 20260507005935 | 12 | 289 | 0.0 | 0.0 | 0.00 | 0.00 | 0.00 | 58 | 1016.8 |
| 20260507005433 | 12 | 281 | 0.0 | 0.0 | 0.00 | 0.00 | 0.00 | 57 | 1016.9 |
| 20260507004930 | 12 | 243 | 0.0 | 0.0 | 0.00 | 0.00 | 0.00 | 56 | 1016.6 |
| 20260507004426 | 13 | 275 | 0.0 | 0.0 | 0.00 | 0.00 | 0.00 | 51 | 1016.8 |
| 20260507003923 | 13 | 312 | 1.6 | 1.6 | 0.00 | 0.00 | 0.00 | 52 | 1016.7 |
| 20260507003418 | 13 | 355 | 0.0 | 1.6 | 0.00 | 0.00 | 0.00 | 50 | 1016.7 |
| 20260507002914 | 13 | 357 | 3.2 | 6.4 | 0.00 | 0.00 | 0.00 | 50 | 1016.7 |
| 20260507002410 | 13 | 247 | 3.2 | 4.8 | 0.00 | 0.00 | 0.00 | 49 | 1016.4 |
| 20260507001908 | 14 | 113 | 3.2 | 4.8 | 0.00 | 0.00 | 0.00 | 49 | 1016.7 |
| 20260507001404 | 14 | 24 | 3.2 | 8.0 | 0.00 | 0.00 | 0.00 | 51 | 1016.6 |
| 20260507000902 | 15 | 258 | 1.6 | 1.6 | 0.00 | 0.00 | 0.00 | 52 | 1016.6 |
| 20260507000357 | 15 | 40 | 1.6 | 1.6 | 0.00 | 0.00 | 0.00 | 48 | 1016.4 |
| 20260506235853 | 15 | 299 | 3.2 | 6.4 | 0.00 | 0.00 | 0.00 | 48 | 1016.5 |
| 20260506235350 | 15 | 204 | 0.0 | 1.6 | 0.00 | 0.00 | 0.00 | 49 | 1016.5 |
| 20260506234845 | 16 | 212 | 3.2 | 4.8 | 0.00 | 0.00 | 0.00 | 47 | 1016.4 |
| 20260506234344 | 16 | 283 | 3.2 | 4.8 | 0.00 | 0.00 | 0.00 | 46 | 1016.3 |
| 20260506233841 | 16 | 277 | 8.0 | 12.9 | 0.00 | 0.00 | 0.00 | 45 | 1016.1 |
| 20260506233337 | 16 | 320 | 6.4 | 8.0 | 0.00 | 0.00 | 0.00 | 46 | 1015.9 |
| 20260506232834 | 16 | 150 | 6.4 | 8.0 | 0.00 | 0.00 | 0.00 | 47 | 1016.1 |
| 20260506232330 | 16 | 174 | 4.8 | 8.0 | 0.00 | 0.00 | 0.00 | 48 | 1015.7 |
| 20260506231826 | 16 | 253 | 1.6 | 1.6 | 0.00 | 0.00 | 0.00 | 46 | 1015.7 |
| 20260506231324 | 16 | 185 | 6.4 | 11.3 | 0.00 | 0.00 | 0.00 | 48 | 1015.6 |
| 20260506230821 | 16 | 230 | 6.4 | 8.0 | 0.00 | 0.00 | 0.00 | 49 | 1015.6 |
| 20260506230318 | 16 | 239 | 9.7 | 16.1 | 0.00 | 0.00 | 0.00 | 46 | 1015.5 |
| 20260506225814 | 16 | 304 | 14.5 | 17.7 | 0.00 | 0.00 | 0.00 | 43 | 1015.4 |
| 20260506225312 | 16 | 288 | 3.2 | 6.4 | 0.00 | 0.00 | 0.00 | 46 | 1015.5 |
| 20260506224809 | 16 | 350 | 11.3 | 12.9 | 0.00 | 0.00 | 0.00 | 45 | 1015.4 |
| 20260506224306 | 16 | 322 | 3.2 | 4.8 | 0.00 | 0.00 | 0.00 | 46 | 1015.3 |
| 20260506223802 | 16 | 350 | 3.2 | 4.8 | 0.00 | 0.00 | 0.00 | 50 | 1015.4 |
| 20260506223257 | 16 | 9 | 8.0 | 11.3 | 0.00 | 0.00 | 0.00 | 45 | 1015.4 |
| 20260506222754 | 17 | 324 | 3.2 | 4.8 | 0.00 | 0.00 | 0.00 | 45 | 1015.1 |
| 20260506222250 | 17 | 248 | 4.8 | 6.4 | 0.00 | 0.00 | 0.00 | 50 | 1015.4 |
| 20260506221748 | 17 | 282 | 6.4 | 8.0 | 0.00 | 0.00 | 0.00 | 45 | 1015.2 |
| 20260506221246 | 16 | 276 | 3.2 | 6.4 | 0.00 | 0.00 | 0.00 | 49 | 1015.4 |
| 20260506220743 | 16 | 165 | 6.4 | 8.0 | 0.00 | 0.00 | 0.00 | 47 | 1015.3 |
| 20260506220238 | 17 | 102 | 3.2 | 11.3 | 0.00 | 0.00 | 0.00 | 46 | 1015.4 |
| 20260506215735 | 17 | 185 | 1.6 | 1.6 | 0.00 | 0.00 | 0.00 | 51 | 1015.5 |
| 20260506215230 | 17 | 267 | 3.2 | 4.8 | 0.00 | 0.00 | 0.00 | 47 | 1015.3 |
| 20260506214727 | 17 | 60 | 4.8 | 11.3 | 0.00 | 0.00 | 0.00 | 45 | 1015.5 |
| 20260506214224 | 16 | 67 | 3.2 | 4.8 | 0.00 | 0.00 | 0.00 | 46 | 1015.6 |
| 20260506213723 | 16 | 284 | 9.7 | 12.9 | 0.00 | 0.00 | 0.00 | 46 | 1015.6 |
| 20260506213220 | 16 | 351 | 4.8 | 8.0 | 0.00 | 0.00 | 0.00 | 44 | 1015.5 |
| 20260506212717 | 16 | 266 | 1.6 | 1.6 | 0.00 | 0.00 | 0.00 | 46 | 1015.5 |
| 20260506212212 | 17 | 81 | 6.4 | 8.0 | 0.00 | 0.00 | 0.00 | 46 | 1015.5 |
| 20260506211708 | 16 | 327 | 1.6 | 1.6 | 0.00 | 0.00 | 0.00 | 46 | 1015.3 |
| 20260506211204 | 17 | 269 | 4.8 | 8.0 | 0.00 | 0.00 | 0.00 | 47 | 1015.5 |
| 20260506210701 | 17 | 121 | 9.7 | 12.9 | 0.00 | 0.00 | 0.00 | 45 | 1015.7 |
| 20260506210158 | 17 | 356 | 6.4 | 8.0 | 0.00 | 0.00 | 0.00 | 45 | 1015.9 |
| 20260506205656 | 16 | 199 | 3.2 | 4.8 | 0.00 | 0.00 | 0.00 | 47 | 1015.8 |
| 20260506205155 | 16 | 167 | 3.2 | 4.8 | 0.00 | 0.00 | 0.00 | 50 | 1015.8 |
| 20260506204653 | 16 | 192 | 6.4 | 8.0 | 0.00 | 0.00 | 0.00 | 48 | 1015.7 |
| 20260506204150 | 16 | 281 | 4.8 | 6.4 | 0.00 | 0.00 | 0.00 | 48 | 1015.9 |
| 20260506203648 | 16 | 83 | 4.8 | 8.0 | 0.00 | 0.00 | 0.00 | 47 | 1016.2 |
| 20260506203145 | 16 | 149 | 3.2 | 6.4 | 0.00 | 0.00 | 0.00 | 50 | 1016.3 |
| 20260506202643 | 16 | 90 | 3.2 | 4.8 | 0.00 | 0.00 | 0.00 | 49 | 1016.3 |
| 20260506202139 | 16 | 138 | 8.0 | 11.3 | 0.00 | 0.00 | 0.00 | 46 | 1016.5 |
| 20260506201636 | 16 | 130 | 9.7 | 11.3 | 0.00 | 0.00 | 0.00 | 47 | 1016.5 |
| 20260506201132 | 15 | 293 | 3.2 | 4.8 | 0.00 | 0.00 | 0.00 | 57 | 1016.5 |
| 20260506200629 | 16 | 350 | 6.4 | 8.0 | 0.00 | 0.00 | 0.00 | 50 | 1016.6 |
| 20260506200126 | 15 | 217 | 9.7 | 11.3 | 0.00 | 0.00 | 0.00 | 52 | 1016.7 |
| 20260506195622 | 15 | 177 | 1.6 | 4.8 | 0.00 | 0.00 | 0.00 | 51 | 1016.9 |
| 20260506195119 | 16 | 80 | 6.4 | 11.3 | 0.00 | 0.00 | 0.00 | 51 | 1016.7 |
| 20260506194616 | 15 | 148 | 9.7 | 11.3 | 0.00 | 0.00 | 0.00 | 55 | 1016.8 |
| 20260506194113 | 15 | 209 | 0.0 | 1.6 | 0.00 | 0.00 | 0.00 | 54 | 1016.6 |
| 20260506193611 | 16 | 76 | 1.6 | 1.6 | 0.00 | 0.00 | 0.00 | 54 | 1016.8 |
| 20260506193108 | 16 | 341 | 4.8 | 8.0 | 0.00 | 0.00 | 0.00 | 52 | 1016.7 |
| 20260506192604 | 16 | 266 | 4.8 | 6.4 | 0.00 | 0.00 | 0.00 | 51 | 1016.8 |
| 20260506192100 | 16 | 287 | 8.0 | 11.3 | 0.00 | 0.00 | 0.00 | 51 | 1016.7 |
| 20260506191557 | 16 | 176 | 11.3 | 16.1 | 0.00 | 0.00 | 0.00 | 52 | 1017.0 |
| 20260506191053 | 16 | 179 | 9.7 | 16.1 | 0.00 | 0.00 | 0.00 | 50 | 1017.0 |
| 20260506190550 | 16 | 299 | 8.0 | 11.3 | 0.00 | 0.00 | 0.00 | 57 | 1016.8 |
| 20260506190047 | 16 | 246 | 3.2 | 4.8 | 0.00 | 0.00 | 0.00 | 54 | 1016.8 |
| 20260506185544 | 16 | 124 | 4.8 | 8.0 | 0.00 | 0.00 | 0.00 | 62 | 1016.9 |
| 20260506185041 | 15 | 74 | 1.6 | 1.6 | 0.00 | 0.00 | 0.00 | 55 | 1017.1 |
| 20260506184538 | 15 | 101 | 8.0 | 8.0 | 0.00 | 0.00 | 0.00 | 54 | 1017.0 |
| 20260506184036 | 15 | 178 | 3.2 | 4.8 | 0.00 | 0.00 | 0.00 | 54 | 1017.3 |
| 20260506183531 | 15 | 286 | 4.8 | 6.4 | 0.00 | 0.00 | 0.00 | 56 | 1017.1 |
| 20260506183028 | 15 | 249 | 4.8 | 6.4 | 0.00 | 0.00 | 0.00 | 54 | 1017.3 |
| 20260506182526 | 15 | 333 | 6.4 | 11.3 | 0.00 | 0.00 | 0.00 | 58 | 1017.5 |
| 20260506182023 | 15 | 308 | 4.8 | 6.4 | 0.00 | 0.00 | 0.00 | 56 | 1017.5 |
| 20260506181521 | 15 | 277 | 1.6 | 4.8 | 0.00 | 0.00 | 0.00 | 59 | 1018.0 |
| 20260506181017 | 15 | 2 | 1.6 | 1.6 | 0.00 | 0.00 | 0.00 | 58 | 1018.1 |
| 20260506180514 | 15 | 255 | 3.2 | 4.8 | 0.00 | 0.00 | 0.00 | 58 | 1018.0 |
| 20260506180010 | 15 | 59 | 0.0 | 1.6 | 0.00 | 0.00 | 0.00 | 58 | 1018.1 |
| 20260506175507 | 14 | 297 | 4.8 | 6.4 | 0.00 | 0.00 | 0.00 | 59 | 1018.2 |
| 20260506175003 | 14 | 299 | 4.8 | 6.4 | 0.00 | 0.00 | 0.00 | 57 | 1018.3 |
| 20260506174502 | 15 | 358 | 6.4 | 8.0 | 0.00 | 0.00 | 0.00 | 61 | 1018.3 |
| 20260506173957 | 14 | 287 | 1.6 | 4.8 | 0.00 | 0.00 | 0.00 | 57 | 1018.3 |
| 20260506173456 | 14 | 168 | 6.4 | 6.4 | 0.00 | 0.00 | 0.00 | 61 | 1018.2 |
| 20260506172952 | 14 | 128 | 8.0 | 11.3 | 0.00 | 0.00 | 0.00 | 56 | 1018.3 |
| 20260506172450 | 15 | 23 | 8.0 | 11.3 | 0.00 | 0.00 | 0.00 | 59 | 1018.3 |
| 20260506171945 | 15 | 166 | 3.2 | 4.8 | 0.00 | 0.00 | 0.00 | 56 | 1018.2 |
| 20260506171443 | 16 | 261 | 6.4 | 8.0 | 0.00 | 0.00 | 0.00 | 54 | 1018.2 |
| 20260506170941 | 15 | 257 | 4.8 | 6.4 | 0.00 | 0.00 | 0.00 | 55 | 1018.2 |
| 20260506170437 | 15 | 185 | 3.2 | 4.8 | 0.00 | 0.00 | 0.00 | 54 | 1018.3 |
| 20260506165936 | 15 | 61 | 3.2 | 4.8 | 0.00 | 0.00 | 0.00 | 57 | 1018.3 |
| 20260506165434 | 14 | 227 | 3.2 | 4.8 | 0.00 | 0.00 | 0.00 | 58 | 1018.4 |
| 20260506164930 | 13 | 86 | 9.7 | 11.3 | 0.00 | 0.00 | 0.00 | 59 | 1018.4 |
| 20260506164427 | 14 | 74 | 8.0 | 8.0 | 0.00 | 0.00 | 0.00 | 59 | 1018.5 |
| 20260506163920 | 14 | 202 | 4.8 | 6.4 | 0.00 | 0.00 | 0.00 | 57 | 1018.1 |
| 20260506163420 | 13 | 347 | 3.2 | 4.8 | 0.00 | 0.00 | 0.00 | 59 | 1018.1 |
| 20260506162915 | 13 | 342 | 6.4 | 8.0 | 0.00 | 0.00 | 0.00 | 61 | 1018.0 |
| 20260506162413 | 13 | 16 | 4.8 | 6.4 | 0.00 | 0.00 | 0.00 | 59 | 1018.0 |
| 20260506161910 | 13 | 97 | 8.0 | 8.0 | 0.00 | 0.00 | 0.00 | 62 | 1017.8 |
| 20260506161408 | 12 | 86 | 4.8 | 6.4 | 0.00 | 0.00 | 0.00 | 62 | 1017.5 |
| 20260506160905 | 13 | 180 | 4.8 | 6.4 | 0.00 | 0.00 | 0.00 | 66 | 1017.3 |
| 20260506160402 | 13 | 93 | 12.9 | 16.1 | 0.00 | 0.00 | 0.00 | 60 | 1017.1 |
| 20260506155900 | 12 | 146 | 3.2 | 4.8 | 0.00 | 0.00 | 0.00 | 66 | 1016.9 |
| 20260506155356 | 12 | 351 | 8.0 | 16.1 | 0.00 | 0.00 | 0.00 | 63 | 1017.1 |
| 20260506153513 | 11 | 207 | 8.0 | 11.3 | 0.00 | 0.00 | 0.00 | 68 | 1017.3 |
| 20260506153011 | 12 | 178 | 4.8 | 6.4 | 0.00 | 0.00 | 0.00 | 68 | 1017.6 |
| 20260506152508 | 11 | 174 | 6.4 | 6.4 | 0.00 | 0.00 | 0.00 | 71 | 1017.5 |
| 20260506152006 | 11 | 340 | 1.6 | 4.8 | 0.00 | 0.00 | 0.00 | 68 | 1017.4 |
| 20260506151503 | 11 | 53 | 4.8 | 6.4 | 0.00 | 0.00 | 0.00 | 68 | 1017.3 |
| 20260506151000 | 11 | 101 | 6.4 | 8.0 | 0.00 | 0.00 | 0.00 | 69 | 1017.2 |
| 20260506150456 | 11 | 133 | 11.3 | 12.9 | 0.00 | 0.00 | 0.00 | 68 | 1017.2 |
| 20260506145953 | 11 | 184 | 9.7 | 11.3 | 0.00 | 0.00 | 0.00 | 69 | 1017.1 |
| 20260506145450 | 11 | 134 | 6.4 | 8.0 | 0.00 | 0.00 | 0.00 | 70 | 1017.0 |
| 20260506144948 | 10 | 197 | 1.6 | 4.8 | 0.00 | 0.00 | 0.00 | 75 | 1017.0 |
| 20260506144444 | 10 | 74 | 6.4 | 6.4 | 0.00 | 0.00 | 0.00 | 72 | 1017.0 |
| 20260506143942 | 10 | 184 | 6.4 | 8.0 | 0.00 | 0.00 | 0.00 | 73 | 1017.2 |
| 20260506143439 | 10 | 119 | 4.8 | 6.4 | 0.00 | 0.00 | 0.00 | 74 | 1017.0 |
| 20260506142937 | 10 | 225 | 11.3 | 16.1 | 0.00 | 0.00 | 0.00 | 72 | 1017.3 |
| 20260506142435 | 10 | 95 | 6.4 | 8.0 | 0.00 | 0.00 | 0.00 | 77 | 1017.1 |
| 20260506141933 | 10 | 72 | 3.2 | 4.8 | 0.00 | 0.00 | 0.00 | 76 | 1017.2 |
| 20260506141430 | 9 | 40 | 1.6 | 1.6 | 0.00 | 0.00 | 0.00 | 77 | 1017.5 |
| 20260506140929 | 10 | 222 | 1.6 | 1.6 | 0.00 | 0.00 | 0.00 | 78 | 1017.5 |
| 20260506140425 | 10 | 244 | 6.4 | 11.3 | 0.00 | 0.00 | 0.00 | 79 | 1017.5 |
| 20260506135922 | 10 | 182 | 3.2 | 4.8 | 0.00 | 0.00 | 0.00 | 78 | 1017.4 |
| 20260506135420 | 9 | 56 | 1.6 | 1.6 | 0.00 | 0.00 | 0.00 | 79 | 1017.2 |
| 20260506134915 | 9 | 159 | 11.3 | 16.1 | 0.00 | 0.00 | 0.00 | 78 | 1017.5 |
| 20260506134412 | 9 | 99 | 3.2 | 8.0 | 0.00 | 0.00 | 0.00 | 81 | 1017.2 |
| 20260506133909 | 8 | 83 | 4.8 | 6.4 | 0.00 | 0.00 | 0.00 | 80 | 1017.1 |
| 20260506133405 | 8 | 53 | 6.4 | 8.0 | 0.00 | 0.00 | 0.00 | 82 | 1017.5 |
| 20260506132902 | 8 | 280 | 3.2 | 4.8 | 0.00 | 0.00 | 0.00 | 82 | 1017.2 |
| 20260506132359 | 8 | 28 | 3.2 | 4.8 | 0.00 | 0.00 | 0.00 | 82 | 1017.3 |
| 20260506131857 | 8 | 321 | 8.0 | 11.3 | 0.00 | 0.00 | 0.00 | 84 | 1017.2 |
| 20260506131353 | 8 | 108 | 6.4 | 11.3 | 0.00 | 0.00 | 0.00 | 84 | 1017.2 |
| 20260506130851 | 8 | 280 | 3.2 | 4.8 | 0.00 | 0.00 | 0.00 | 84 | 1017.2 |
| 20260506130347 | 8 | 296 | 3.2 | 4.8 | 0.00 | 0.00 | 0.00 | 86 | 1017.2 |
| 20260506125845 | 8 | 349 | 0.0 | 1.6 | 0.00 | 0.00 | 0.00 | 86 | 1017.0 |
| 20260506125343 | 8 | 328 | 4.8 | 6.4 | 0.00 | 0.00 | 0.00 | 87 | 1016.9 |
| 20260506124841 | 8 | 21 | 3.2 | 4.8 | 0.00 | 0.00 | 0.00 | 86 | 1016.6 |
| 20260506124337 | 8 | 61 | 8.0 | 11.3 | 0.00 | 0.00 | 0.00 | 86 | 1016.7 |
| 20260506123835 | 8 | 286 | 3.2 | 4.8 | 0.00 | 0.00 | 0.00 | 86 | 1016.6 |
| 20260506123334 | 8 | 117 | 4.8 | 8.0 | 0.00 | 0.00 | 0.00 | 86 | 1017.0 |
| 20260506122830 | 8 | 352 | 3.2 | 4.8 | 0.00 | 0.00 | 0.00 | 87 | 1016.7 |
| 20260506122327 | 8 | 205 | 3.2 | 4.8 | 0.00 | 0.00 | 0.00 | 87 | 1016.7 |
| 20260506121826 | 7 | 274 | 1.6 | 4.8 | 0.00 | 0.00 | 0.00 | 88 | 1016.6 |
| 20260506121322 | 7 | 280 | 4.8 | 6.4 | 0.00 | 0.00 | 0.00 | 89 | 1016.9 |
| 20260506120819 | 7 | 308 | 0.0 | 1.6 | 0.00 | 0.00 | 0.00 | 89 | 1017.0 |
| 20260506120317 | 7 | 201 | 0.0 | 1.6 | 0.00 | 0.00 | 0.00 | 89 | 1017.1 |
| 20260506115814 | 7 | 358 | 1.6 | 1.6 | 0.00 | 0.00 | 0.00 | 89 | 1017.2 |
| 20260506115313 | 7 | 3 | 6.4 | 8.0 | 0.00 | 0.00 | 0.00 | 89 | 1016.9 |
| 20260506114810 | 7 | 123 | 4.8 | 6.4 | 0.00 | 0.00 | 0.00 | 89 | 1016.7 |
| 20260506114308 | 7 | 57 | 4.8 | 6.4 | 0.00 | 0.00 | 0.00 | 89 | 1016.6 |
| 20260506113806 | 7 | 106 | 6.4 | 12.9 | 0.00 | 0.00 | 0.00 | 89 | 1016.6 |
| 20260506113303 | 7 | 216 | 1.6 | 1.6 | 0.00 | 0.00 | 0.00 | 90 | 1016.6 |
| 20260506112800 | 7 | 20 | 1.6 | 4.8 | 0.00 | 0.00 | 0.00 | 89 | 1016.5 |
| 20260506112257 | 7 | 213 | 1.6 | 1.6 | 0.00 | 0.00 | 0.00 | 90 | 1016.6 |
| 20260506111754 | 7 | 275 | 0.0 | 0.0 | 0.00 | 0.00 | 0.00 | 90 | 1016.5 |
| 20260506111252 | 7 | 189 | 1.6 | 4.8 | 0.00 | 0.00 | 0.00 | 90 | 1016.2 |
| 20260506110749 | 7 | 262 | 3.2 | 6.4 | 0.00 | 0.00 | 0.00 | 89 | 1016.3 |
| 20260506110247 | 7 | 301 | 6.4 | 6.4 | 0.00 | 0.00 | 0.00 | 89 | 1016.1 |
| 20260506105743 | 7 | 202 | 0.0 | 1.6 | 0.00 | 0.00 | 0.00 | 89 | 1015.8 |
| 20260506105240 | 7 | 235 | 1.6 | 1.6 | 0.00 | 0.00 | 0.00 | 89 | 1015.9 |
| 20260506104738 | 7 | 214 | 1.6 | 1.6 | 0.00 | 0.00 | 0.00 | 89 | 1015.7 |
| 20260506104235 | 7 | 305 | 1.6 | 1.6 | 0.00 | 0.00 | 0.00 | 89 | 1015.5 |
| 20260506103732 | 7 | 268 | 0.0 | 0.0 | 0.00 | 0.00 | 0.00 | 89 | 1015.6 |
| 20260506103230 | 7 | 301 | 1.6 | 1.6 | 0.00 | 0.00 | 0.00 | 89 | 1015.6 |
| 20260506102727 | 7 | 241 | 1.6 | 1.6 | 0.00 | 0.00 | 0.00 | 89 | 1015.5 |
| 20260506102225 | 7 | 337 | 3.2 | 4.8 | 0.00 | 0.00 | 0.00 | 88 | 1015.4 |
| 20260506101721 | 7 | 308 | 4.8 | 6.4 | 0.00 | 0.00 | 0.00 | 88 | 1014.9 |
| 20260506101218 | 7 | 273 | 0.0 | 0.0 | 0.00 | 0.00 | 0.00 | 88 | 1014.7 |
| 20260506100716 | 7 | 230 | 1.6 | 1.6 | 0.00 | 0.00 | 0.00 | 88 | 1014.5 |
| 20260506100214 | 7 | 254 | 3.2 | 4.8 | 0.00 | 0.00 | 0.00 | 88 | 1014.5 |
| 20260506095712 | 7 | 309 | 3.2 | 4.8 | 0.00 | 0.00 | 0.00 | 88 | 1014.1 |
| 20260506095209 | 7 | 354 | 1.6 | 1.6 | 0.00 | 0.00 | 0.00 | 88 | 1014.2 |
| 20260506094706 | 7 | 233 | 1.6 | 1.6 | 0.00 | 0.00 | 0.00 | 87 | 1014.2 |
| 20260506094204 | 7 | 276 | 4.8 | 6.4 | 0.00 | 0.00 | 0.00 | 87 | 1014.3 |
| 20260506093703 | 7 | 121 | 1.6 | 4.8 | 0.00 | 0.00 | 0.00 | 88 | 1014.4 |
| 20260506093159 | 7 | 208 | 1.6 | 1.6 | 0.00 | 0.00 | 0.00 | 88 | 1014.2 |
| 20260506092657 | 7 | 277 | 0.0 | 0.0 | 0.00 | 0.00 | 0.00 | 88 | 1014.3 |
| 20260506092154 | 7 | 44 | 1.6 | 4.8 | 0.00 | 0.00 | 0.00 | 88 | 1014.4 |
| 20260506091652 | 7 | 286 | 0.0 | 1.6 | 0.00 | 0.00 | 0.00 | 87 | 1014.1 |
| 20260506091149 | 7 | 280 | 1.6 | 1.6 | 0.00 | 0.00 | 0.00 | 86 | 1013.9 |
| 20260506090647 | 7 | 10 | 3.2 | 4.8 | 0.00 | 0.00 | 0.00 | 86 | 1013.4 |
| 20260506090143 | 7 | 65 | 0.0 | 0.0 | 0.00 | 0.00 | 0.00 | 86 | 1013.4 |
| 20260506085640 | 7 | 355 | 4.8 | 6.4 | 0.00 | 0.00 | 0.00 | 85 | 1013.4 |
| 20260506085136 | 7 | 290 | 0.0 | 1.6 | 0.00 | 0.00 | 0.00 | 85 | 1013.5 |
| 20260506084633 | 7 | 197 | 1.6 | 1.6 | 0.00 | 0.00 | 0.00 | 86 | 1013.3 |
| 20260506084130 | 7 | 311 | 0.0 | 1.6 | 0.00 | 0.00 | 0.00 | 86 | 1013.4 |
| 20260506083627 | 8 | 205 | 1.6 | 1.6 | 0.00 | 0.00 | 0.00 | 87 | 1013.3 |
| 20260506083124 | 8 | 203 | 0.0 | 1.6 | 0.00 | 0.00 | 0.00 | 85 | 1013.5 |
| 20260506082621 | 7 | 222 | 1.6 | 1.6 | 0.00 | 0.00 | 0.00 | 85 | 1013.5 |
| 20260506082116 | 8 | 227 | 4.8 | 6.4 | 0.00 | 0.00 | 0.00 | 85 | 1013.2 |
| 20260506081615 | 8 | 226 | 0.0 | 1.6 | 0.00 | 0.00 | 0.00 | 85 | 1013.3 |
| 20260506081112 | 8 | 105 | 3.2 | 4.8 | 0.00 | 0.00 | 0.00 | 85 | 1013.5 |
| 20260506080610 | 8 | 98 | 3.2 | 4.8 | 0.00 | 0.00 | 0.00 | 85 | 1013.7 |
| 20260506080106 | 8 | 275 | 1.6 | 1.6 | 0.00 | 0.00 | 0.00 | 85 | 1013.2 |
| 20260506073049 | 8 | 351 | 4.8 | 4.8 | 0.00 | 0.00 | 0.00 | 86 | 1012.4 |
| 20260506072547 | 8 | 74 | 4.8 | 8.0 | 0.00 | 0.00 | 0.00 | 85 | 1012.8 |
| 20260506072044 | 8 | 58 | 3.2 | 4.8 | 0.00 | 0.00 | 0.00 | 86 | 1012.7 |
| 20260506071542 | 8 | 189 | 4.8 | 6.4 | 0.00 | 0.00 | 0.00 | 85 | 1012.6 |
| 20260506071040 | 8 | 152 | 1.6 | 1.6 | 0.00 | 0.00 | 0.00 | 86 | 1012.7 |
| 20260506070536 | 8 | 211 | 1.6 | 1.6 | 0.00 | 0.00 | 0.00 | 85 | 1013.0 |
| 20260506062514 | 8 | 277 | 4.8 | 8.0 | 0.00 | 0.00 | 0.00 | 88 | 1012.8 |
| 20260506062011 | 8 | 96 | 11.3 | 17.7 | 0.00 | 0.00 | 0.00 | 90 | 1012.7 |
| 20260506061506 | 8 | 322 | 3.2 | 8.0 | 0.00 | 0.00 | 0.00 | 92 | 1012.7 |
| 20260506061004 | 8 | 282 | 0.0 | 1.6 | 0.00 | 0.00 | 0.00 | 92 | 1013.2 |
| 20260506060503 | 7 | 335 | 1.6 | 1.6 | 0.00 | 0.00 | 0.00 | 93 | 1013.5 |
| 20260506050931 | 8 | 260 | 1.6 | 1.6 | 0.00 | 0.00 | 0.00 | 91 | 1013.7 |
| 20260506050429 | 8 | 255 | 0.0 | 0.0 | 0.00 | 0.00 | 0.00 | 91 | 1013.5 |
| 20260506044919 | 8 | 226 | 0.0 | 1.6 | 0.00 | 2.16 | 2.16 | 91 | 1013.4 |
| 20260506044418 | 8 | 271 | 1.6 | 1.6 | 0.00 | 2.16 | 2.16 | 91 | 1013.2 |
| 20260506043914 | 8 | 289 | 0.0 | 0.0 | 0.00 | 2.16 | 2.16 | 91 | 1013.1 |
| 20260506043412 | 8 | 354 | 8.0 | 8.0 | 0.00 | 2.16 | 2.16 | 91 | 1013.1 |